Time,TemperatureF,DewpointF,PressureIn,WindDirection,WindDirectionDegrees,WindSpeedMPH,WindSpeedGustMPH,Humidity,HourlyPrecipIn,Conditions,Clouds,dailyrainin,SoftwareType,DateUTC
2013-03-24 00:03:00,32.0,20.0,29.97,NE,45,0.0,0.0,61,0.00,,,0.00,,2013-03-24 04:03:00,
2013-03-24 00:13:00,32.0,20.0,29.97,NE,45,0.0,0.0,61,0.00,,,0.00,,2013-03-24 04:13:00,
2013-03-24 00:23:00,31.0,19.0,29.97,NE,45,0.0,0.0,61,0.00,,,0.00,,2013-03-24 04:23:00,
2013-03-24 00:33:00,31.0,20.0,29.97,NE,45,0.0,0.0,62,0.00,,,0.00,,2013-03-24 04:33:00,
2013-03-24 00:43:00,31.0,20.0,29.97,NE,45,0.0,0.0,62,0.00,,,0.00,,2013-03-24 04:43:00,
2013-03-24 00:52:00,31.0,20.0,29.97,NE,45,0.0,0.0,62,0.00,,,0.00,,2013-03-24 04:52:00,
2013-03-24 01:03:00,31.0,20.0,29.98,NE,45,0.0,0.0,63,0.00,,,0.00,,2013-03-24 05:03:00,
2013-03-24 01:12:00,31.0,20.0,29.98,NE,45,0.0,0.0,63,0.00,,,0.00,,2013-03-24 05:12:00,
2013-03-24 01:23:00,30.0,19.0,29.99,NE,45,0.0,0.0,63,0.00,,,0.00,,2013-03-24 05:23:00,
2013-03-24 01:32:00,30.0,19.0,29.98,NE,45,0.0,0.0,63,0.00,,,0.00,,2013-03-24 05:32:00,
2013-03-24 01:42:00,30.0,19.0,29.98,NE,45,0.0,0.0,63,0.00,,,0.00,,2013-03-24 05:42:00,
2013-03-24 01:52:00,29.0,18.0,29.97,NE,45,0.0,0.0,63,0.00,,,0.00,,2013-03-24 05:52:00,
2013-03-24 02:02:00,29.0,18.0,29.97,NE,45,0.0,0.0,63,0.00,,,0.00,,2013-03-24 06:02:00,
2013-03-24 02:12:00,29.0,18.0,29.97,NE,45,0.0,0.0,63,0.00,,,0.00,,2013-03-24 06:12:00,
2013-03-24 02:22:00,29.0,19.0,29.97,NE,45,0.0,0.0,65,0.00,,,0.00,,2013-03-24 06:22:00,
2013-03-24 02:32:00,29.0,19.0,29.97,NE,45,0.0,0.0,65,0.00,,,0.00,,2013-03-24 06:32:00,
2013-03-24 02:42:00,29.0,19.0,29.97,NE,45,0.0,0.0,65,0.00,,,0.00,,2013-03-24 06:42:00,
2013-03-24 02:52:00,29.0,19.0,29.97,ENE,67,0.0,0.0,66,0.00,,,0.00,,2013-03-24 06:52:00,
2013-03-24 03:02:00,29.0,19.0,29.97,ENE,67,0.0,0.0,66,0.00,,,0.00,,2013-03-24 07:02:00,
2013-03-24 03:12:00,29.0,19.0,29.97,ENE,67,0.0,0.0,66,0.00,,,0.00,,2013-03-24 07:12:00,
2013-03-24 03:22:00,29.0,19.0,29.97,ENE,67,0.0,3.0,67,0.00,,,0.00,,2013-03-24 07:22:00,
2013-03-24 03:32:00,29.0,20.0,29.97,ENE,67,0.0,0.0,68,0.00,,,0.00,,2013-03-24 07:32:00,
2013-03-24 03:42:00,29.0,20.0,29.97,ENE,67,0.0,0.0,68,0.00,,,0.00,,2013-03-24 07:42:00,
2013-03-24 03:52:00,29.0,20.0,29.96,ENE,67,2.0,2.0,68,0.00,,,0.00,,2013-03-24 07:52:00,
2013-03-24 04:03:00,29.0,20.0,29.97,ENE,67,0.0,0.0,68,0.00,,,0.00,,2013-03-24 08:03:00,
2013-03-24 04:12:00,29.0,20.0,29.97,ENE,67,0.0,0.0,68,0.00,,,0.00,,2013-03-24 08:12:00,
2013-03-24 04:22:00,29.0,20.0,29.96,ENE,67,0.0,0.0,69,0.00,,,0.00,,2013-03-24 08:22:00,
2013-03-24 04:32:00,29.0,20.0,29.95,ENE,67,0.0,0.0,69,0.00,,,0.00,,2013-03-24 08:32:00,
2013-03-24 04:42:00,29.0,20.0,29.95,ENE,67,0.0,0.0,69,0.00,,,0.00,,2013-03-24 08:42:00,
2013-03-24 04:52:00,29.0,20.0,29.95,ENE,67,0.0,0.0,70,0.00,,,0.00,,2013-03-24 08:52:00,
2013-03-24 05:02:00,29.0,20.0,29.95,ENE,67,0.0,1.0,70,0.00,,,0.00,,2013-03-24 09:02:00,
2013-03-24 05:12:00,29.0,20.0,29.95,ENE,67,0.0,1.0,70,0.00,,,0.00,,2013-03-24 09:12:00,
2013-03-24 05:22:00,29.0,20.0,29.94,ENE,67,2.0,3.0,70,0.00,,,0.00,,2013-03-24 09:22:00,
2013-03-24 05:33:00,29.0,21.0,29.93,ENE,67,0.0,0.0,71,0.00,,,0.00,,2013-03-24 09:33:00,
2013-03-24 05:42:00,29.0,21.0,29.93,ENE,67,0.0,0.0,71,0.00,,,0.00,,2013-03-24 09:42:00,
2013-03-24 05:52:00,29.0,21.0,29.92,ENE,67,2.0,2.0,71,0.00,,,0.00,,2013-03-24 09:52:00,
2013-03-24 06:03:00,29.0,21.0,29.92,ENE,67,2.0,3.0,71,0.00,,,0.00,,2013-03-24 10:03:00,
2013-03-24 06:12:00,29.0,21.0,29.92,ENE,67,2.0,3.0,71,0.00,,,0.00,,2013-03-24 10:12:00,
2013-03-24 06:22:00,29.0,21.0,29.91,ENE,67,3.0,4.0,71,0.00,,,0.00,,2013-03-24 10:22:00,
2013-03-24 06:33:00,30.0,22.0,29.90,ENE,67,0.0,3.0,71,0.00,,,0.00,,2013-03-24 10:33:00,
2013-03-24 06:42:00,30.0,22.0,29.90,ENE,67,0.0,3.0,71,0.00,,,0.00,,2013-03-24 10:42:00,
2013-03-24 06:52:00,30.0,22.0,29.90,NW,315,0.0,0.0,71,0.00,,,0.00,,2013-03-24 10:52:00,
2013-03-24 07:03:00,30.0,22.0,29.90,East,81,1.0,1.0,71,0.00,,,0.00,,2013-03-24 11:03:00,
2013-03-24 07:12:00,30.0,22.0,29.90,East,81,1.0,1.0,71,0.00,,,0.00,,2013-03-24 11:12:00,
2013-03-24 07:22:00,30.0,22.0,29.90,ESE,117,2.0,4.0,71,0.00,,,0.00,,2013-03-24 11:22:00,
2013-03-24 07:33:00,30.0,22.0,29.89,ESE,112,0.0,3.0,71,0.00,,,0.00,,2013-03-24 11:33:00,
2013-03-24 07:42:00,30.0,22.0,29.89,ESE,112,0.0,3.0,71,0.00,,,0.00,,2013-03-24 11:42:00,
2013-03-24 07:52:00,30.0,22.0,29.89,East,87,1.0,2.0,71,0.00,,,0.00,,2013-03-24 11:52:00,
2013-03-24 08:03:00,30.0,22.0,29.89,ENE,67,2.0,2.0,71,0.00,,,0.00,,2013-03-24 12:03:00,
2013-03-24 08:12:00,30.0,22.0,29.89,ENE,67,2.0,2.0,71,0.00,,,0.00,,2013-03-24 12:12:00,
2013-03-24 08:22:00,30.0,22.0,29.88,ENE,67,1.0,2.0,71,0.00,,,0.00,,2013-03-24 12:22:00,
2013-03-24 08:32:00,30.0,22.0,29.88,ENE,67,1.0,1.0,71,0.00,,,0.00,,2013-03-24 12:32:00,
2013-03-24 08:42:00,30.0,22.0,29.88,ENE,67,1.0,1.0,71,0.00,,,0.00,,2013-03-24 12:42:00,
2013-03-24 08:52:00,30.0,22.0,29.87,ENE,67,0.0,2.0,71,0.00,,,0.00,,2013-03-24 12:52:00,
2013-03-24 09:02:00,30.0,22.0,29.87,ENE,67,0.0,1.0,71,0.00,,,0.00,,2013-03-24 13:02:00,
2013-03-24 09:12:00,30.0,22.0,29.87,ENE,67,0.0,1.0,71,0.00,,,0.00,,2013-03-24 13:12:00,
2013-03-24 09:22:00,30.0,22.0,29.87,ENE,67,1.0,3.0,71,0.00,,,0.00,,2013-03-24 13:22:00,
2013-03-24 09:32:00,30.0,22.0,29.86,ENE,67,3.0,3.0,72,0.00,,,0.00,,2013-03-24 13:32:00,
2013-03-24 09:42:00,30.0,22.0,29.86,ENE,67,3.0,3.0,72,0.00,,,0.00,,2013-03-24 13:42:00,
2013-03-24 09:52:00,30.0,22.0,29.85,ENE,73,3.0,5.0,73,0.00,,,0.00,,2013-03-24 13:52:00,
2013-03-24 10:02:00,30.0,22.0,29.84,ENE,72,1.0,2.0,73,0.00,,,0.00,,2013-03-24 14:02:00,
2013-03-24 10:12:00,30.0,22.0,29.84,ENE,72,1.0,2.0,73,0.00,,,0.00,,2013-03-24 14:12:00,
2013-03-24 10:22:00,31.0,23.0,29.82,ESE,112,3.0,5.0,73,0.00,,,0.00,,2013-03-24 14:22:00,
2013-03-24 10:33:00,31.0,23.0,29.83,NE,45,0.0,4.0,72,0.00,,,0.00,,2013-03-24 14:33:00,
2013-03-24 10:42:00,31.0,23.0,29.83,NE,45,0.0,4.0,72,0.00,,,0.00,,2013-03-24 14:42:00,
2013-03-24 10:52:00,31.0,23.0,29.82,East,90,4.0,4.0,71,0.00,,,0.00,,2013-03-24 14:52:00,
2013-03-24 11:02:00,31.0,23.0,29.82,ENE,67,4.0,5.0,71,0.00,,,0.00,,2013-03-24 15:02:00,
2013-03-24 11:12:00,31.0,23.0,29.82,ENE,67,4.0,5.0,71,0.00,,,0.00,,2013-03-24 15:12:00,
2013-03-24 11:22:00,31.0,23.0,29.79,NNW,337,0.0,7.0,72,0.00,,,0.00,,2013-03-24 15:22:00,
2013-03-24 11:33:00,31.0,23.0,29.79,ENE,67,3.0,5.0,72,0.00,,,0.00,,2013-03-24 15:33:00,
2013-03-24 11:43:00,31.0,23.0,29.79,ENE,67,3.0,5.0,72,0.00,,,0.00,,2013-03-24 15:43:00,
2013-03-24 11:53:00,30.0,22.0,29.77,ENE,67,7.0,7.0,71,0.00,,,0.00,,2013-03-24 15:53:00,
2013-03-24 12:03:00,30.0,22.0,29.77,East,88,4.0,7.0,71,0.00,,,0.00,,2013-03-24 16:03:00,
2013-03-24 12:12:00,30.0,22.0,29.77,East,88,4.0,7.0,71,0.00,,,0.00,,2013-03-24 16:12:00,
2013-03-24 12:23:00,29.0,21.0,29.76,ENE,67,4.0,5.0,71,0.00,,,0.00,,2013-03-24 16:23:00,
2013-03-24 12:33:00,29.0,21.0,29.76,ENE,67,5.0,5.0,71,0.00,,,0.00,,2013-03-24 16:33:00,
2013-03-24 12:42:00,29.0,21.0,29.76,ENE,67,5.0,5.0,71,0.00,,,0.00,,2013-03-24 16:42:00,
2013-03-24 12:52:00,28.0,20.0,29.76,ESE,118,2.0,5.0,70,0.00,,,0.00,,2013-03-24 16:52:00,
2013-03-24 13:02:00,27.0,19.0,29.76,SSE,153,5.0,5.0,70,0.00,,,0.00,,2013-03-24 17:02:00,
2013-03-24 13:12:00,27.0,19.0,29.76,SSE,153,5.0,5.0,70,0.00,,,0.00,,2013-03-24 17:12:00,
2013-03-24 13:23:00,27.0,19.0,29.76,ENE,75,2.0,5.0,70,0.00,,,0.00,,2013-03-24 17:23:00,
2013-03-24 13:33:00,26.0,18.0,29.76,ESE,112,4.0,4.0,70,0.00,,,0.00,,2013-03-24 17:33:00,
2013-03-24 13:42:00,26.0,18.0,29.76,ESE,112,4.0,4.0,70,0.00,,,0.00,,2013-03-24 17:42:00,
2013-03-24 13:53:00,26.0,18.0,29.74,East,90,2.0,2.0,70,0.00,,,0.00,,2013-03-24 17:53:00,
2013-03-24 14:03:00,26.0,18.0,29.72,SE,135,5.0,5.0,70,0.00,,,0.00,,2013-03-24 18:03:00,
2013-03-24 14:12:00,26.0,18.0,29.72,SE,135,5.0,5.0,70,0.00,,,0.00,,2013-03-24 18:12:00,
2013-03-24 14:22:00,26.0,18.0,29.71,East,81,5.0,7.0,70,0.00,,,0.00,,2013-03-24 18:22:00,
2013-03-24 14:32:00,27.0,19.0,29.70,East,90,8.0,8.0,70,0.00,,,0.00,,2013-03-24 18:32:00,
2013-03-24 14:43:00,27.0,19.0,29.70,East,90,8.0,8.0,70,0.00,,,0.00,,2013-03-24 18:43:00,
2013-03-24 14:52:00,28.0,20.0,29.68,East,80,5.0,7.0,70,0.00,,,0.00,,2013-03-24 18:52:00,
2013-03-24 15:02:00,28.0,19.0,29.67,ENE,63,10.0,10.0,69,0.00,,,0.00,,2013-03-24 19:02:00,
2013-03-24 15:12:00,28.0,19.0,29.67,ENE,63,10.0,10.0,69,0.00,,,0.00,,2013-03-24 19:12:00,
2013-03-24 15:22:00,29.0,20.0,29.64,ENE,67,5.0,10.0,68,0.00,,,0.00,,2013-03-24 19:22:00,
2013-03-24 15:32:00,30.0,21.0,29.63,ENE,67,7.0,7.0,68,0.00,,,0.00,,2013-03-24 19:32:00,
2013-03-24 15:42:00,30.0,21.0,29.63,ENE,67,7.0,7.0,68,0.00,,,0.00,,2013-03-24 19:42:00,
2013-03-24 15:53:00,31.0,21.0,29.61,ENE,62,7.0,13.0,67,0.00,,,0.00,,2013-03-24 19:53:00,
2013-03-24 16:03:00,31.0,21.0,29.61,ENE,67,3.0,8.0,66,0.00,,,0.00,,2013-03-24 20:03:00,
2013-03-24 16:12:00,31.0,21.0,29.61,ENE,67,3.0,8.0,66,0.00,,,0.00,,2013-03-24 20:12:00,
2013-03-24 16:22:00,32.0,22.0,29.60,East,89,4.0,6.0,65,0.00,,,0.00,,2013-03-24 20:22:00,
2013-03-24 16:32:00,33.0,22.0,29.60,East,81,4.0,11.0,64,0.00,,,0.00,,2013-03-24 20:32:00,
2013-03-24 16:42:00,33.0,22.0,29.60,East,81,4.0,11.0,64,0.00,,,0.00,,2013-03-24 20:42:00,
2013-03-24 16:53:00,34.0,23.0,29.59,ENE,67,4.0,6.0,64,0.00,,,0.00,,2013-03-24 20:53:00,
2013-03-24 17:02:00,35.0,24.0,29.59,East,90,6.0,8.0,63,0.00,,,0.00,,2013-03-24 21:02:00,
2013-03-24 17:12:00,35.0,24.0,29.59,East,90,6.0,8.0,63,0.00,,,0.00,,2013-03-24 21:12:00,
2013-03-24 17:22:00,36.0,25.0,29.56,ENE,67,2.0,10.0,63,0.00,,,0.00,,2013-03-24 21:22:00,
2013-03-24 17:33:00,36.0,25.0,29.58,East,82,7.0,7.0,63,0.00,,,0.00,,2013-03-24 21:33:00,
2013-03-24 17:43:00,36.0,25.0,29.58,East,82,7.0,7.0,63,0.00,,,0.00,,2013-03-24 21:43:00,
2013-03-24 17:53:00,35.0,24.0,29.57,ENE,67,2.0,5.0,63,0.00,,,0.00,,2013-03-24 21:53:00,
2013-03-24 18:03:00,35.0,24.0,29.55,ENE,67,3.0,11.0,63,0.00,,,0.00,,2013-03-24 22:03:00,
2013-03-24 18:13:00,34.0,23.0,29.55,ESE,112,3.0,8.0,63,0.00,,,0.00,,2013-03-24 22:13:00,
2013-03-24 18:23:00,34.0,23.0,29.55,ESE,112,3.0,8.0,63,0.00,,,0.00,,2013-03-24 22:23:00,
2013-03-24 18:33:00,34.0,23.0,29.54,ESE,112,3.0,9.0,63,0.00,,,0.00,,2013-03-24 22:33:00,
2013-03-24 18:43:00,34.0,23.0,29.54,ESE,112,3.0,9.0,63,0.00,,,0.00,,2013-03-24 22:43:00,
2013-03-24 18:53:00,34.0,22.0,29.55,ESE,112,9.0,9.0,62,0.00,,,0.00,,2013-03-24 22:53:00,
2013-03-24 19:03:00,34.0,22.0,29.56,ESE,112,4.0,9.0,62,0.00,,,0.00,,2013-03-24 23:03:00,
2013-03-24 19:12:00,34.0,22.0,29.56,ESE,112,4.0,9.0,62,0.00,,,0.00,,2013-03-24 23:12:00,
2013-03-24 19:22:00,34.0,22.0,29.57,ENE,67,8.0,8.0,62,0.00,,,0.00,,2013-03-24 23:22:00,
2013-03-24 19:32:00,34.0,22.0,29.58,ENE,67,7.0,7.0,62,0.00,,,0.00,,2013-03-24 23:32:00,
2013-03-24 19:42:00,34.0,22.0,29.58,ENE,67,7.0,7.0,62,0.00,,,0.00,,2013-03-24 23:42:00,
2013-03-24 19:53:00,33.0,21.0,29.58,NE,45,3.0,6.0,62,0.00,,,0.00,,2013-03-24 23:53:00,
2013-03-24 20:02:00,33.0,21.0,29.58,ENE,67,2.0,3.0,62,0.00,,,0.00,,2013-03-25 00:02:00,
2013-03-24 20:12:00,33.0,21.0,29.58,ENE,67,2.0,3.0,62,0.00,,,0.00,,2013-03-25 00:12:00,
2013-03-24 20:22:00,33.0,21.0,29.58,ENE,67,2.0,3.0,62,0.00,,,0.00,,2013-03-25 00:22:00,
2013-03-24 20:32:00,33.0,22.0,29.58,NE,45,2.0,2.0,64,0.00,,,0.00,,2013-03-25 00:32:00,
2013-03-24 20:42:00,33.0,22.0,29.58,NE,45,2.0,2.0,64,0.00,,,0.00,,2013-03-25 00:42:00,
2013-03-24 20:53:00,32.0,22.0,29.59,NE,49,2.0,2.0,66,0.00,,,0.00,,2013-03-25 00:53:00,
2013-03-24 21:02:00,31.0,22.0,29.59,ENE,67,5.0,6.0,70,0.00,,,0.00,,2013-03-25 01:02:00,
2013-03-24 21:12:00,31.0,22.0,29.59,ENE,67,5.0,6.0,70,0.00,,,0.00,,2013-03-25 01:12:00,
2013-03-24 21:22:00,30.0,22.0,29.58,ENE,67,0.0,6.0,71,0.00,,,0.00,,2013-03-25 01:22:00,
2013-03-24 21:32:00,30.0,22.0,29.57,ENE,67,0.0,0.0,73,0.00,,,0.00,,2013-03-25 01:32:00,
2013-03-24 21:42:00,30.0,22.0,29.57,ENE,67,0.0,0.0,73,0.00,,,0.00,,2013-03-25 01:42:00,
2013-03-24 21:52:00,30.0,23.0,29.57,ENE,67,0.0,0.0,74,0.00,,,0.00,,2013-03-25 01:52:00,
2013-03-24 22:02:00,30.0,23.0,29.58,ENE,67,0.0,0.0,75,0.00,,,0.00,,2013-03-25 02:02:00,
2013-03-24 22:12:00,30.0,23.0,29.58,ENE,67,0.0,0.0,75,0.00,,,0.00,,2013-03-25 02:12:00,
2013-03-24 22:22:00,30.0,23.0,29.59,ENE,67,0.0,0.0,76,0.00,,,0.00,,2013-03-25 02:22:00,
2013-03-24 22:33:00,30.0,23.0,29.58,ENE,67,0.0,0.0,76,0.00,,,0.00,,2013-03-25 02:33:00,
2013-03-24 22:42:00,29.0,23.0,29.58,ENE,67,0.0,0.0,77,0.00,,,0.00,,2013-03-25 02:42:00,
2013-03-24 22:52:00,29.0,23.0,29.58,ENE,67,0.0,0.0,77,0.00,,,0.00,,2013-03-25 02:52:00,
2013-03-24 23:02:00,29.0,23.0,29.58,ENE,67,0.0,0.0,78,0.00,,,0.00,,2013-03-25 03:02:00,
2013-03-24 23:13:00,29.0,23.0,29.58,ENE,67,0.0,0.0,78,0.00,,,0.00,,2013-03-25 03:13:00,
2013-03-24 23:23:00,29.0,23.0,29.58,ENE,67,0.0,0.0,79,0.00,,,0.00,,2013-03-25 03:23:00,
2013-03-24 23:33:00,29.0,23.0,29.58,ENE,67,0.0,0.0,79,0.00,,,0.00,,2013-03-25 03:33:00,
2013-03-24 23:43:00,29.0,23.0,29.58,NE,45,0.0,0.0,79,0.00,,,0.00,,2013-03-25 03:43:00,
2013-03-24 23:53:00,29.0,23.0,29.58,NE,45,0.0,0.0,79,0.00,,,0.00,,2013-03-25 03:53:00,